Regional Weather Roundup
Issued by NWS

Home | Current Version | Previous Version | Graphics & Text | Print | Product List | Glossary On
Versions: 1 2 3 4 5 6 7 8 9 10 11 12 13 14 15 16 17 18 19 20 21 22 23 24 25 26 27 28 29 30 31 32 33 34 35 36 37 38 39 40 41 42 43 44 45 46 47 48 49 50
000
ASUS43 KBIS 291710
RWRND

NORTH DAKOTA REGIONAL WEATHER ROUNDUP
NATIONAL WEATHER SERVICE BISMARCK ND
1200 PM CDT SUN MAY 29 2016

NOTE: "FAIR" INDICATES FEW OR NO CLOUDS BELOW 12,000 FEET WITH NO
SIGNIFICANT WEATHER AND/OR OBSTRUCTIONS TO VISIBILITY.


NDZ001>003-009>011-017-291800-
NORTHWEST NORTH DAKOTA

CITY           SKY/WX    TMP DP  RH WIND       PRES   REMARKS
WILLISTON      SUNNY     70  38  31 SW13      30.01S
MINOT          SUNNY     74  39  28 W16       29.97S
MINOT AFB      SUNNY     69  44  40 NW10G21   29.96S
$$

NDZ018>021-031>035-040>046-291800-
SOUTHWEST NORTH DAKOTA

CITY           SKY/WX    TMP DP  RH WIND       PRES   REMARKS
BISMARCK       SUNNY     72  45  37 NW9       30.02F
DICKINSON      SUNNY     68  40  35 VRB6      30.02F
GARRISON         N/A     71  40  32 W14G23    30.01R
HETTINGER ARPT SUNNY     69  49  48 VRB3      30.06F
$$

NDZ004>008-012>016-024-026-027-054-291800-
NORTHEAST NORTH DAKOTA

CITY           SKY/WX    TMP DP  RH WIND       PRES   REMARKS
GRAND FORKS    PTSUNNY   68  58  70 N10       29.93S
GRND FRKS AFB  MOSUNNY   66  57  71 N12       29.94S
DEVILS LAKE    MOSUNNY   69  50  50 W18       29.96S
$$

NDZ022-023-025-028>030-036>039-047>053-291800-
SOUTHEAST NORTH DAKOTA

CITY           SKY/WX    TMP DP  RH WIND       PRES   REMARKS
FARGO          PTSUNNY   70  57  63 N10       29.95S
JAMESTOWN      SUNNY     71  47  42 NW14G25   29.98S
$$





USA.gov is the U.S. government's official web portal to all federal, state and local government web resources and services.